Wetbulb
47.40 47.07 46.89 46.86 46.68 46.30 45.81 45.62 45.66 45.71 45.67 45.28 44.84 44.65 44.53 44.40 44.08 43.89 43.82 43.66 43.34 43.18 43.27 43.36 43.36 43.49 43.52 43.44 43.12 42.96 42.78 42.81 42.56 42.74 42.68 42.56 42.53 42.59 42.52 42.48 42.35 42.16 42.03 41.86 41.85 41.69 41.65 41.52 41.23 41.18 41.19 41.37 41.40 41.37 41.44 41.54 41.45 41.08 40.69 40.39 40.14 40.11 40.07 40.01 39.92 40.12 40.35 40.49 40.69
46.51 46.44 46.49 46.85 46.78 46.32 45.72 45.45 45.35 45.23 45.17 44.98 44.74 44.43 44.14 43.95 43.75 43.53 43.47 43.31 43.15 43.12 43.15 43.09 43.24 43.20 43.11 42.99 42.96 42.71 42.55 42.34 42.21 42.12 42.21 42.15 42.18 42.33 42.30 42.16 42.01 41.83 41.64 41.51 41.38 41.27 41.21 41.08 40.85 40.70 40.69 40.92 40.94 40.79 40.81 41.11 41.20 40.66 40.12 39.80 39.79 39.77 39.82 39.65 39.78 39.99 40.19 40.25 40.46
46.31 46.18 46.15 45.86 45.63 45.37 44.98 44.72 44.59 44.46 44.39 44.51 44.57 44.20 43.88 43.63 43.43 43.40 43.30 43.27 43.15 43.00 42.87 42.77 42.93 42.98 42.69 42.54 42.57 42.54 42.33 42.12 41.90 41.77 41.71 41.68 41.84 41.87 41.81 41.70 41.55 41.49 41.41 41.22 41.14 41.02 40.89 40.73 40.53 40.34 40.25 40.35 40.30 40.20 40.26 40.59 40.52 40.12 39.59 39.32 39.46 39.53 39.47 39.35 39.64 39.85 39.95 39.96 40.19
45.56 45.30 45.14 44.91 44.62 44.53 44.30 44.24 44.05 43.82 43.85 44.03 44.25 44.00 43.68 43.49 43.35 43.25 43.23 43.14 42.93 42.81 42.61 42.58 42.73 42.79 42.66 42.28 42.13 42.11 41.90 41.99 41.68 41.49 41.37 41.34 41.31 41.34 41.37 41.30 41.00 40.93 40.89 40.92 40.89 40.79 40.66 40.42 40.25 40.10 40.07 39.96 39.84 39.74 39.81 39.97 39.92 39.63 39.23 39.25 39.30 39.24 39.17 39.17 39.47 39.58 39.75 39.78 39.92
44.86 44.80 44.70 44.46 44.27 44.14 44.01 43.89 43.63 43.50 43.57 43.81 43.72 43.62 43.33 43.27 43.17 43.06 43.00 42.87 42.51 42.39 42.35 42.41 42.50 42.46 42.31 41.95 41.70 41.56 41.53 41.59 41.68 41.38 41.11 40.93 40.94 40.97 40.97 40.85 40.57 40.44 40.43 40.62 40.55 40.59 40.39 40.23 39.96 39.82 39.74 39.79 39.63 39.63 39.68 39.75 39.41 39.10 39.05 39.08 39.14 39.12 39.02 39.07 39.29 39.52 39.61 39.57 39.65
44.40 44.48 44.50 44.45 44.11 43.90 43.84 43.69 43.53 43.47 43.46 43.55 43.15 42.93 42.64 42.54 42.54 42.36 42.18 42.05 42.15 42.15 42.17 42.07 41.99 41.76 41.65 41.41 41.23 41.11 41.04 41.16 41.17 40.96 40.76 40.55 40.62 40.50 40.51 40.35 40.19 40.18 40.10 40.14 40.12 40.13 40.06 39.68 39.45 39.43 39.50 39.53 39.51 39.48 39.52 39.50 38.97 38.69 38.50 38.47 38.74 38.82 38.96 38.87 39.07 39.31 39.40 39.32 39.23
44.31 44.25 44.14 44.00 43.95 43.71 43.56 43.55 43.53 43.42 43.30 43.07 42.42 41.93 41.79 41.74 41.77 41.79 41.90 41.93 41.87 41.92 41.91 41.85 41.63 41.39 41.07 40.91 40.72 40.69 40.60 40.62 40.60 40.53 40.41 40.27 40.26 40.12 40.06 39.90 39.90 39.80 39.72 39.73 39.73 39.63 39.50 39.33 39.02 38.97 39.10 39.26 39.15 39.12 39.19 39.12 38.71 38.27 37.89 37.78 38.29 38.59 38.74 38.84 39.04 39.17 39.07 38.93 38.90
44.25 44.10 43.95 43.69 43.49 43.33 43.13 43.14 43.16 42.91 42.67 42.22 41.68 41.41 41.38 41.32 41.39 41.52 41.59 41.50 41.31 41.50 41.57 41.69 41.50 41.16 40.78 40.56 40.30 40.20 40.20 40.04 39.99 40.01 40.05 39.92 39.82 39.68 39.61 39.58 39.43 39.30 39.45 39.44 39.22 39.22 39.05 38.97 38.72 38.67 38.60 38.68 38.58 38.67 38.70 38.74 38.35 37.90 37.50 37.38 37.77 38.27 38.61 38.66 38.94 38.99 38.83 38.64 38.49
44.12 44.12 43.98 43.62 43.17 42.84 42.70 42.70 42.54 42.27 41.91 41.53 41.33 41.28 41.28 41.10 41.27 41.31 41.11 40.83 41.00 41.34 41.53 41.43 41.18 40.86 40.49 40.21 40.03 40.00 39.97 39.81 39.50 39.54 39.57 39.54 39.39 39.22 39.19 39.20 39.10 39.01 39.02 39.06 38.93 38.84 38.73 38.55 38.37 38.31 38.30 38.30 38.10 38.10 38.20 38.26 37.77 37.36 37.17 37.15 37.41 37.70 38.07 38.40 38.50 38.55 38.45 38.44 38.21
43.57 43.46 43.31 42.97 42.74 42.68 42.63 42.43 42.10 41.88 41.59 41.25 41.22 41.19 41.27 41.18 41.10 41.01 40.84 40.89 41.25 41.29 41.15 41.09 40.75 40.47 40.03 39.90 39.92 39.84 39.69 39.56 39.32 39.15 39.08 39.08 39.02 38.88 38.80 38.83 38.66 38.58 38.48 38.58 38.65 38.60 38.42 38.14 37.93 37.94 37.88 37.91 37.80 37.71 37.69 37.74 37.31 36.97 36.78 36.88 37.08 37.19 37.45 37.80 38.04 38.15 38.18 38.14 37.96
42.31 42.27 42.21 42.23 42.26 42.34 42.38 42.21 41.94 41.70 41.47 41.14 41.05 41.10 41.10 41.21 40.90 40.80 40.86 41.10 40.92 40.62 40.55 40.72 40.40 39.96 39.73 39.67 39.64 39.53 39.35 39.26 39.09 38.94 38.76 38.78 38.74 38.78 38.66 38.54 38.41 38.20 38.10 38.17 38.33 38.18 37.98 37.72 37.50 37.45 37.38 37.56 37.51 37.40 37.30 37.23 36.88 36.59 36.40 36.51 36.78 36.82 36.84 37.18 37.61 37.80 37.85 37.87 37.81
41.38 41.57 41.72 41.92 42.13 42.10 42.03 41.81 41.63 41.43 41.31 40.99 40.85 40.88 40.92 40.90 40.72 40.68 40.62 40.57 40.05 40.08 40.24 40.49 40.28 39.88 39.58 39.46 39.38 39.34 39.23 39.02 38.88 38.67 38.54 38.46 38.57 38.52 38.49 38.39 38.20 38.04 37.91 37.90 38.04 37.91 37.58 37.30 37.03 36.89 36.84 37.01 37.00 37.02 36.83 36.72 36.33 36.15 35.96 36.15 36.38 36.38 36.41 36.71 37.13 37.43 37.56 37.66 37.53
41.12 41.30 41.51 41.65 41.88 41.76 41.49 41.36 41.22 41.05 40.87 40.68 40.57 40.52 40.56 40.49 40.58 40.33 40.11 39.74 39.60 39.68 39.96 40.22 40.06 39.83 39.54 39.28 39.24 39.14 39.00 38.77 38.60 38.39 38.31 38.25 38.34 38.23 38.18 38.10 37.98 37.79 37.74 37.71 37.78 37.60 37.30 36.96 36.78 36.54 36.39 36.44 36.56 36.58 36.54 36.29 36.04 35.77 35.61 35.73 35.94 36.04 36.11 36.40 36.76 37.10 37.35 37.49 37.21
40.91 41.03 41.17 41.34 41.41 41.32 40.94 40.74 40.70 40.60 40.37 40.23 40.13 40.20 40.16 40.21 40.24 40.05 39.69 39.41 39.23 39.38 39.49 39.67 39.72 39.55 39.35 39.14 39.02 38.78 38.64 38.56 38.33 38.18 38.04 37.98 38.04 37.98 37.86 37.82 37.72 37.58 37.51 37.52 37.55 37.40 37.07 36.71 36.54 36.40 36.20 36.07 36.04 36.16 36.16 36.09 35.83 35.68 35.58 35.58 35.61 35.82 36.06 36.30 36.65 36.85 36.92 36.80 36.77
40.80 40.73 40.74 40.88 40.85 40.64 40.33 40.15 40.19 40.06 39.78 39.63 39.71 39.81 39.79 39.69 39.82 39.72 39.56 39.15 39.05 39.10 39.19 39.17 39.08 39.08 39.20 39.03 38.77 38.66 38.47 38.31 38.13 37.90 37.72 37.64 37.64 37.61 37.63 37.45 37.35 37.26 37.26 37.19 37.18 37.09 36.84 36.61 36.42 36.34 36.10 35.87 35.81 35.89 35.89 35.89 35.83 35.74 35.72 35.72 35.74 35.85 36.02 36.19 36.47 36.53 36.56 36.39 36.22
40.48 40.39 40.37 40.36 40.31 40.06 39.75 39.68 39.67 39.59 39.38 39.23 39.49 39.50 39.40 39.26 39.40 39.45 39.21 38.94 38.83 38.86 38.80 38.58 38.54 38.67 38.77 38.87 38.70 38.49 38.27 38.01 37.84 37.67 37.43 37.31 37.31 37.34 37.22 37.12 37.07 36.99 36.95 36.85 36.76 36.66 36.63 36.65 36.54 36.38 36.18 35.92 35.76 35.66 35.66 35.66 35.62 35.73 35.81 35.88 35.98 36.02 36.12 36.22 36.37 36.38 36.36 36.24 36.00
40.05 39.91 39.91 39.92 39.82 39.55 39.37 39.21 39.14 39.11 38.97 38.98 39.15 39.18 39.10 38.91 39.02 38.96 38.82 38.67 38.50 38.35 38.17 38.11 38.18 38.20 38.28 38.31 38.45 38.34 38.04 37.75 37.58 37.40 37.29 37.17 37.06 36.97 36.96 36.86 36.94 36.85 36.79 36.56 36.39 36.29 36.29 36.41 36.54 36.48 36.32 35.99 35.73 35.56 35.53 35.49 35.49 35.63 35.81 35.96 36.06 36.16 36.23 36.41 36.41 36.31 36.25 36.16 35.99
39.64 39.54 39.51 39.37 39.21 39.14 38.97 38.80 38.67 38.58 38.59 38.60 38.80 38.90 38.94 38.85 38.64 38.60 38.62 38.66 38.40 38.07 37.78 37.67 37.87 37.93 37.86 37.81 37.91 38.00 37.81 37.48 37.31 37.19 37.19 37.15 37.08 36.86 36.82 36.73 36.84 36.77 36.67 36.45 36.23 36.09 36.06 36.13 36.31 36.34 36.22 36.00 35.74 35.54 35.47 35.44 35.47 35.54 35.75 35.86 36.00 36.07 36.21 36.35 36.35 36.33 36.16 36.02 35.92
39.24 39.11 38.94 38.70 38.53 38.47 38.49 38.26 38.17 38.22 38.34 38.48 38.59 38.65 38.65 38.62 38.40 38.35 38.28 38.35 38.22 37.93 37.59 37.42 37.52 37.64 37.67 37.57 37.51 37.57 37.57 37.39 37.17 37.09 37.09 37.17 37.10 36.89 36.75 36.69 36.74 36.67 36.60 36.36 36.18 36.08 36.00 36.07 36.15 36.06 35.87 35.74 35.44 35.31 35.28 35.31 35.35 35.49 35.70 35.77 35.88 36.02 36.05 36.16 36.27 36.32 36.25 36.10 35.96
38.84 38.59 38.25 37.97 37.93 37.91 38.00 37.95 37.99 38.06 38.21 38.45 38.45 38.35 38.32 38.36 38.28 38.02 37.85 37.81 37.99 37.94 37.63 37.39 37.24 37.30 37.32 37.39 37.24 37.19 37.24 37.39 37.18 37.06 36.98 37.03 36.93 36.83 36.68 36.64 36.52 36.42 36.44 36.30 36.09 36.06 36.02 36.06 36.02 35.87 35.70 35.30 35.04 34.90 34.94 35.08 35.15 35.33 35.47 35.61 35.71 35.82 35.93 36.08 36.15 36.18 36.22 36.07 36.00
38.15 37.89 37.70 37.54 37.49 37.53 37.63 37.87 37.93 38.05 38.16 38.23 38.19 38.14 38.12 38.11 38.02 37.81 37.72 37.77 37.91 37.73 37.56 37.29 37.14 37.06 36.91 37.00 36.85 36.85 36.91 37.23 37.12 37.04 36.91 36.96 36.93 36.77 36.68 36.64 36.47 36.30 36.21 36.11 36.04 36.07 35.99 35.98 35.90 35.72 35.35 35.01 34.73 34.66 34.65 34.76 34.82 35.04 35.21 35.29 35.47 35.64 35.79 35.85 35.96 35.96 35.93 35.93 35.93
37.64 37.51 37.34 37.35 37.40 37.42 37.66 37.93 38.04 38.05 38.14 38.06 38.02 37.92 37.89 37.81 37.78 37.74 37.72 37.84 37.77 37.56 37.31 37.17 37.04 36.95 36.81 36.76 36.69 36.64 36.75 36.93 37.03 36.99 36.95 36.87 36.83 36.80 36.79 36.66 36.42 36.11 35.99 35.89 35.89 35.97 35.95 36.02 35.81 35.47 35.11 34.69 34.58 34.54 34.60 34.59 34.58 34.68 34.79 34.93 35.12 35.34 35.42 35.56 35.66 35.67 35.75 35.75 35.86
37.35 37.31 37.32 37.47 37.54 37.66 37.70 37.91 38.04 37.98 37.94 37.82 37.78 37.72 37.61 37.45 37.52 37.56 37.64 37.54 37.44 37.20 37.13 37.06 37.05 37.00 36.94 36.87 36.73 36.69 36.65 36.65 36.68 36.84 36.87 36.78 36.63 36.62 36.59 36.59 36.16 35.89 35.77 35.75 35.95 36.00 35.90 35.72 35.53 35.21 34.86 34.53 34.48 34.44 34.50 34.49 34.37 34.35 34.31 34.39 34.58 34.70 34.82 35.04 35.23 35.37 35.49 35.61 35.79
37.08 37.12 37.30 37.62 37.66 37.75 37.81 37.91 37.79 37.72 37.57 37.50 37.47 37.42 37.34 37.30 37.22 37.22 37.18 37.03 37.02 36.91 36.85 36.79 36.88 36.94 36.95 36.86 36.86 36.68 36.54 36.34 36.29 36.38 36.44 36.50 36.43 36.33 36.26 36.20 35.98 35.85 35.84 36.04 36.50 36.60 36.41 35.72 35.21 34.93 34.76 34.64 34.49 34.37 34.35 34.34 34.21 34.09 34.01 33.95 33.95 34.07 34.27 34.54 34.85 35.08 35.20 35.46 35.68
36.95 37.09 37.26 37.49 37.53 37.62 37.69 37.62 37.41 37.35 37.24 37.24 37.28 37.16 37.12 36.96 36.93 36.83 36.76 36.68 36.68 36.68 36.72 36.66 36.75 36.76 36.85 36.73 36.76 36.64 36.54 36.26 36.08 35.94 35.94 36.04 36.08 36.04 35.95 35.85 35.68 35.85 36.11 36.46 37.20 37.50 37.39 36.86 36.09 35.40 34.87 34.64 34.45 34.32 34.26 34.18 34.09 33.98 33.83 33.68 33.64 33.60 33.62 33.95 34.31 34.70 35.02 35.14 35.32
36.99 37.16 37.32 37.36 37.42 37.44 37.33 37.34 37.21 37.19 37.12 37.12 37.08 36.86 36.68 36.64 36.64 36.53 36.42 36.32 36.42 36.49 36.57 36.47 36.55 36.63 36.71 36.53 36.45 36.48 36.30 36.24 36.07 35.86 35.69 35.45 35.51 35.59 35.59 35.42 35.41 35.68 36.17 36.69 37.25 37.66 37.88 37.91 37.60 36.71 35.62 34.64 34.29 34.02 33.86 33.82 33.83 33.82 33.69 33.57 33.45 33.32 33.21 33.25 33.66 34.15 34.61 34.86 34.93
36.99 37.12 37.21 37.37 37.28 37.19 37.12 37.12 37.07 37.00 36.86 36.73 36.55 36.42 36.38 36.45 36.34 36.30 36.19 36.15 36.22 36.40 36.41 36.35 36.47 36.54 36.61 36.36 36.11 36.04 35.97 36.09 36.02 35.84 35.63 35.46 35.21 35.11 35.08 35.15 35.21 35.43 35.92 36.83 37.43 37.65 37.84 37.94 37.93 37.45 36.44 34.91 34.33 33.92 33.57 33.37 33.47 33.50 33.47 33.34 33.25 33.18 33.11 33.01 33.29 33.63 33.96 34.24 34.38
36.84 36.97 37.10 37.12 36.91 36.83 36.86 36.90 36.78 36.57 36.44 36.34 36.24 36.25 36.29 36.28 36.16 35.98 36.02 36.02 36.14 36.18 36.15 36.16 36.34 36.44 36.30 36.05 35.88 35.84 35.81 35.89 35.86 35.79 35.64 35.43 35.15 34.97 34.87 34.84 34.90 35.33 35.97 36.99 37.39 37.57 37.60 37.71 37.58 37.37 36.82 35.61 34.50 33.96 33.69 33.27 33.12 33.04 33.02 32.97 33.01 33.09 33.11 33.19 33.25 33.36 33.43 33.52 33.57
36.64 36.78 36.77 36.54 36.46 36.52 36.51 36.44 36.28 36.15 36.16 36.13 36.17 36.14 36.14 35.96 35.89 35.86 35.83 35.83 35.84 35.78 35.67 35.78 36.06 35.99 35.81 35.60 35.64 35.71 35.82 35.79 35.68 35.57 35.47 35.11 34.90 34.73 34.69 34.73 34.73 35.29 36.21 37.24 37.35 37.41 37.37 37.24 37.19 37.17 36.88 36.41 34.78 33.89 33.41 33.06 32.81 32.70 32.65 32.70 32.82 32.94 32.94 33.01 33.11 33.10 33.05 32.99 32.90
36.61 36.49 36.35 36.16 36.11 36.10 36.10 36.11 36.08 36.09 36.09 36.10 36.06 35.89 35.79 35.69 35.62 35.56 35.56 35.49 35.50 35.54 35.68 35.75 35.64 35.40 35.26 35.33 35.47 35.43 35.43 35.43 35.43 35.36 35.04 34.59 34.38 34.31 34.44 34.62 34.52 34.99 35.91 37.12 37.19 37.15 37.10 36.93 36.84 36.70 36.59 36.47 35.11 33.92 33.15 32.89 32.60 32.42 32.41 32.47 32.65 32.73 32.84 32.82 32.83 32.77 32.64 32.51 32.45
36.40 36.25 36.00 35.81 35.81 35.84 35.91 36.06 36.06 35.98 35.95 35.92 35.75 35.58 35.45 35.31 35.29 35.32 35.43 35.43 35.50 35.72 35.86 35.82 35.40 35.18 35.15 35.36 35.29 35.18 35.11 35.08 35.04 34.90 34.62 34.27 34.19 34.15 34.19 34.23 34.27 34.75 35.59 36.86 36.89 36.96 36.83 36.62 36.48 36.37 36.26 36.18 34.89 33.79 32.94 32.58 32.48 32.33 32.25 32.23 32.42 32.56 32.55 32.46 32.52 32.49 32.37 32.30 32.13
36.12 35.83 35.58 35.44 35.43 35.61 35.74 35.85 35.81 35.77 35.71 35.57 35.41 35.28 35.18 35.11 35.22 35.40 35.50 35.64 35.57 35.57 35.47 35.26 34.94 34.83 34.87 35.01 34.87 34.83 34.73 34.63 34.52 34.44 34.33 34.18 33.94 33.83 33.84 33.85 33.99 34.47 35.34 36.56 36.63 36.65 36.56 36.46 36.23 36.04 35.85 35.77 34.76 33.58 32.76 32.29 32.32 32.32 32.24 32.30 32.33 32.34 32.32 32.26 32.34 32.32 32.26 32.15 32.17
35.69 35.48 35.24 35.17 35.20 35.34 35.51 35.54 35.54 35.47 35.41 35.20 35.14 35.08 34.97 35.07 35.24 35.35 35.42 35.57 35.39 35.18 34.90 34.66 34.48 34.31 34.31 34.38 34.32 34.28 34.31 34.24 34.27 34.27 34.30 34.19 33.87 33.70 33.53 33.57 33.68 34.40 35.40 36.30 36.40 36.31 36.28 36.10 35.87 35.75 35.63 35.60 34.43 33.31 32.44 32.10 32.12 32.10 32.15 32.14 32.12 32.23 32.34 32.40 32.29 32.23 32.26 32.28 32.32
35.27 35.07 35.00 34.93 34.97 35.07 35.14 35.24 35.20 35.18 35.00 34.80 34.83 34.83 34.90 34.91 34.86 34.93 34.95 35.17 35.18 34.94 34.80 34.66 34.52 34.41 34.35 34.35 34.04 33.90 33.86 33.96 33.96 33.92 33.89 33.78 33.60 33.32 33.14 33.04 33.23 34.32 35.47 36.10 36.12 36.03 35.85 35.70 35.58 35.39 35.38 35.32 33.95 32.79 32.19 32.00 31.95 31.88 31.78 31.79 31.85 31.96 32.12 32.29 32.36 32.34 32.38 32.39 32.48
34.86 34.72 34.62 34.62 34.66 34.73 34.76 34.76 34.83 34.73 34.59 34.35 34.38 34.54 34.69 34.74 34.59 34.60 34.69 34.96 35.00 34.83 34.73 34.69 34.70 34.56 34.49 34.35 34.17 33.93 33.72 33.58 33.55 33.48 33.48 33.41 33.19 32.94 32.76 32.69 33.02 34.16 35.38 35.76 35.77 35.67 35.52 35.41 35.29 35.22 35.06 34.57 33.25 32.51 32.09 31.85 31.72 31.55 31.45 31.41 31.51 31.64 31.90 32.21 32.24 32.34 32.56 32.70 32.72
34.69 34.41 34.31 34.25 34.28 34.35 34.38 34.42 34.42 34.21 34.10 33.96 34.01 34.18 34.34 34.37 34.45 34.65 34.80 34.96 34.71 34.44 34.27 34.28 34.28 34.11 33.90 33.83 33.69 33.72 33.52 33.21 33.11 33.08 33.11 33.14 32.86 32.51 32.26 32.32 32.67 33.70 34.86 35.33 35.34 35.27 35.23 35.12 35.09 35.02 34.68 33.75 32.64 32.09 31.91 31.58 31.30 31.27 31.18 31.03 30.94 31.32 31.78 31.94 32.00 32.28 32.60 32.73 32.60
34.55 34.31 34.14 34.01 33.97 34.11 34.14 34.10 33.96 33.78 33.63 33.58 33.79 33.86 33.98 34.09 34.16 34.44 34.67 34.75 34.22 33.84 33.61 33.72 33.55 33.38 33.27 33.19 33.19 33.27 33.41 33.34 33.06 32.80 32.71 32.87 32.56 32.24 31.99 31.98 32.15 32.95 34.02 34.87 35.06 35.03 35.00 35.00 34.98 34.79 34.28 32.98 32.17 31.74 31.52 31.16 30.81 30.74 30.73 30.65 30.65 31.08 31.56 31.76 32.03 32.20 32.37 32.49 32.60
34.45 34.28 34.11 33.87 33.79 33.82 33.82 33.78 33.56 33.41 33.32 33.46 33.64 33.87 33.91 33.92 33.98 34.22 34.39 34.40 33.73 33.29 33.16 33.10 33.03 32.96 33.02 33.14 33.07 33.16 33.23 33.28 33.13 32.77 32.50 32.47 32.39 32.17 31.88 31.65 31.82 32.36 33.29 34.38 34.79 34.87 34.88 34.90 34.91 34.76 34.07 32.67 31.94 31.51 31.24 30.84 30.54 30.34 30.22 30.22 30.54 31.02 31.37 31.76 31.93 32.07 32.23 32.46 33.12
34.38 34.28 34.11 33.79 33.68 33.57 33.50 33.42 33.27 33.24 33.30 33.36 33.53 33.65 33.75 33.72 33.72 33.92 34.15 34.19 33.67 33.29 32.98 32.75 32.71 32.81 33.03 33.20 32.94 32.79 32.80 32.91 32.97 32.86 32.56 32.16 32.32 32.42 32.24 31.64 31.58 32.08 32.89 34.09 34.57 34.76 34.81 34.86 34.84 34.84 34.32 33.01 32.01 31.42 31.12 30.79 30.43 30.17 30.01 30.16 30.41 30.69 31.14 31.46 31.65 31.82 32.14 32.62 33.91
34.42 34.32 34.14 33.82 33.60 33.43 33.21 33.09 33.12 33.28 33.44 33.43 33.33 33.39 33.39 33.53 33.66 33.86 34.02 34.03 33.79 33.41 33.06 32.72 32.72 32.82 32.98 33.18 32.74 32.38 32.25 32.49 32.60 32.63 32.62 32.32 32.53 32.85 32.73 31.85 31.60 31.90 32.66 33.78 34.35 34.65 34.78 34.80 34.84 34.88 34.36 32.94 32.05 31.52 31.09 30.70 30.31 29.94 29.78 29.96 30.10 30.26 30.52 31.01 31.45 31.79 32.07 32.59 33.61
34.38 34.28 34.03 33.75 33.60 33.35 33.12 32.91 32.99 33.26 33.54 33.46 33.33 33.37 33.56 33.70 33.73 33.71 33.72 33.55 33.42 33.21 32.97 32.69 32.66 32.73 32.80 32.88 32.42 32.02 31.79 31.84 32.15 32.39 32.52 32.54 32.55 32.69 32.58 31.88 31.61 31.78 32.20 33.20 34.08 34.52 34.78 34.84 34.84 34.81 34.38 33.00 32.20 31.58 31.10 30.59 30.00 29.63 29.47 29.70 29.96 29.98 30.01 30.47 31.04 31.63 31.96 32.19 32.28
MSLP
1014.32 1014.44 1014.52 1014.60 1014.68 1014.76 1014.84 1014.96 1015.04 1015.08 1015.08 1015.12 1015.12 1015.12 1015.20 1015.24 1015.24 1015.28 1015.40 1015.48 1015.52 1015.56 1015.56 1015.56 1015.60 1015.64 1015.64 1015.68 1015.68 1015.72 1015.68 1015.64 1015.56 1015.56 1015.52 1015.44 1015.40 1015.40 1015.36 1015.32 1015.28 1015.24 1015.16 1015.08 1015.00 1014.92 1014.84 1014.80 1014.72 1014.56 1014.44 1014.32 1014.16 1013.96 1013.80 1013.68 1013.56 1013.44 1013.32 1013.20 1013.08 1012.96 1012.80 1012.68 1012.52 1012.32 1012.16 1012.00 1011.84
1014.48 1014.56 1014.68 1014.72 1014.76 1014.84 1014.92 1015.00 1015.04 1015.12 1015.16 1015.20 1015.28 1015.28 1015.32 1015.36 1015.40 1015.44 1015.52 1015.56 1015.64 1015.68 1015.68 1015.64 1015.68 1015.72 1015.72 1015.72 1015.72 1015.72 1015.72 1015.68 1015.60 1015.56 1015.56 1015.48 1015.44 1015.44 1015.40 1015.36 1015.28 1015.24 1015.16 1015.12 1015.00 1014.96 1014.88 1014.84 1014.72 1014.60 1014.44 1014.28 1014.12 1013.92 1013.76 1013.68 1013.56 1013.44 1013.28 1013.16 1013.08 1012.96 1012.84 1012.68 1012.48 1012.28 1012.16 1011.96 1011.80
1014.64 1014.68 1014.72 1014.72 1014.80 1014.84 1014.88 1015.00 1015.04 1015.12 1015.24 1015.28 1015.36 1015.44 1015.48 1015.52 1015.56 1015.56 1015.64 1015.68 1015.72 1015.72 1015.72 1015.72 1015.76 1015.80 1015.76 1015.80 1015.80 1015.80 1015.76 1015.72 1015.68 1015.64 1015.56 1015.56 1015.44 1015.44 1015.40 1015.36 1015.28 1015.24 1015.16 1015.12 1015.04 1015.00 1014.92 1014.84 1014.72 1014.60 1014.44 1014.28 1014.08 1013.92 1013.76 1013.64 1013.56 1013.44 1013.28 1013.20 1013.12 1013.00 1012.84 1012.68 1012.44 1012.28 1012.12 1011.96 1011.80
1014.84 1014.84 1014.84 1014.84 1014.92 1014.96 1015.00 1015.04 1015.12 1015.20 1015.32 1015.44 1015.44 1015.52 1015.56 1015.68 1015.68 1015.72 1015.72 1015.76 1015.76 1015.76 1015.80 1015.84 1015.84 1015.88 1015.84 1015.84 1015.84 1015.80 1015.80 1015.76 1015.72 1015.68 1015.60 1015.56 1015.48 1015.44 1015.40 1015.36 1015.28 1015.24 1015.16 1015.12 1015.08 1015.00 1014.92 1014.84 1014.72 1014.56 1014.44 1014.28 1014.12 1013.92 1013.76 1013.68 1013.56 1013.44 1013.32 1013.24 1013.12 1013.00 1012.84 1012.64 1012.44 1012.28 1012.12 1011.96 1011.80
1015.04 1015.12 1015.12 1015.12 1015.12 1015.16 1015.20 1015.28 1015.28 1015.36 1015.44 1015.52 1015.52 1015.56 1015.68 1015.72 1015.76 1015.76 1015.80 1015.80 1015.80 1015.84 1015.88 1015.96 1015.96 1015.92 1015.92 1015.88 1015.84 1015.84 1015.80 1015.80 1015.76 1015.72 1015.64 1015.56 1015.52 1015.44 1015.40 1015.36 1015.28 1015.24 1015.16 1015.12 1015.08 1015.00 1014.92 1014.84 1014.72 1014.56 1014.40 1014.24 1014.08 1013.92 1013.76 1013.68 1013.56 1013.44 1013.36 1013.24 1013.12 1013.00 1012.84 1012.64 1012.44 1012.28 1012.08 1011.92 1011.76
1015.24 1015.32 1015.36 1015.40 1015.36 1015.36 1015.40 1015.44 1015.48 1015.52 1015.56 1015.64 1015.64 1015.68 1015.72 1015.80 1015.84 1015.80 1015.80 1015.80 1015.84 1015.88 1015.96 1016.00 1016.00 1016.00 1015.92 1015.92 1015.88 1015.84 1015.84 1015.84 1015.80 1015.72 1015.68 1015.60 1015.56 1015.44 1015.40 1015.36 1015.32 1015.28 1015.20 1015.12 1015.04 1014.96 1014.88 1014.80 1014.64 1014.52 1014.36 1014.20 1014.04 1013.92 1013.76 1013.68 1013.56 1013.44 1013.36 1013.24 1013.12 1012.96 1012.80 1012.60 1012.44 1012.28 1012.08 1011.92 1011.76
1015.40 1015.48 1015.56 1015.56 1015.56 1015.56 1015.56 1015.60 1015.60 1015.64 1015.68 1015.72 1015.80 1015.84 1015.88 1015.92 1015.96 1015.88 1015.84 1015.84 1015.88 1015.96 1016.04 1016.08 1016.08 1016.04 1016.04 1016.00 1015.96 1015.92 1015.92 1015.88 1015.84 1015.80 1015.72 1015.64 1015.56 1015.48 1015.44 1015.36 1015.32 1015.28 1015.16 1015.12 1015.04 1014.96 1014.84 1014.76 1014.64 1014.48 1014.32 1014.16 1014.00 1013.84 1013.76 1013.72 1013.60 1013.48 1013.36 1013.20 1013.04 1012.92 1012.76 1012.56 1012.40 1012.24 1012.08 1011.84 1011.68
1015.60 1015.64 1015.72 1015.72 1015.72 1015.72 1015.72 1015.72 1015.72 1015.72 1015.76 1015.84 1015.96 1016.00 1016.00 1016.04 1016.04 1016.00 1015.96 1015.92 1015.96 1016.04 1016.12 1016.16 1016.16 1016.12 1016.12 1016.08 1016.00 1016.00 1015.96 1015.92 1015.84 1015.84 1015.76 1015.68 1015.60 1015.52 1015.44 1015.40 1015.32 1015.24 1015.16 1015.12 1015.04 1014.96 1014.84 1014.76 1014.64 1014.48 1014.28 1014.16 1014.00 1013.88 1013.80 1013.72 1013.64 1013.48 1013.32 1013.16 1012.96 1012.84 1012.72 1012.56 1012.36 1012.16 1012.00 1011.76 1011.56
1015.72 1015.80 1015.84 1015.84 1015.88 1015.88 1015.88 1015.84 1015.84 1015.84 1015.88 1015.96 1016.00 1016.08 1016.12 1016.16 1016.16 1016.12 1016.04 1016.04 1016.12 1016.16 1016.16 1016.16 1016.16 1016.16 1016.16 1016.12 1016.04 1016.00 1016.00 1016.00 1015.96 1015.84 1015.76 1015.72 1015.64 1015.56 1015.44 1015.40 1015.32 1015.24 1015.12 1015.12 1015.00 1014.92 1014.84 1014.76 1014.60 1014.44 1014.28 1014.16 1014.00 1013.88 1013.80 1013.72 1013.56 1013.40 1013.28 1013.08 1012.88 1012.72 1012.56 1012.44 1012.28 1012.08 1011.84 1011.64 1011.44
1015.84 1015.88 1015.92 1015.96 1016.00 1016.00 1016.00 1015.96 1016.00 1016.00 1016.00 1016.04 1016.12 1016.16 1016.16 1016.20 1016.20 1016.20 1016.20 1016.20 1016.20 1016.16 1016.12 1016.16 1016.20 1016.20 1016.16 1016.16 1016.16 1016.12 1016.08 1016.04 1016.00 1015.88 1015.80 1015.72 1015.64 1015.56 1015.44 1015.40 1015.28 1015.24 1015.12 1015.08 1015.00 1014.92 1014.84 1014.72 1014.56 1014.44 1014.32 1014.20 1014.04 1013.88 1013.76 1013.64 1013.48 1013.32 1013.16 1013.00 1012.80 1012.64 1012.44 1012.32 1012.16 1011.96 1011.72 1011.52 1011.28
1015.96 1016.00 1016.04 1016.04 1016.04 1016.08 1016.04 1016.00 1016.04 1016.08 1016.16 1016.16 1016.20 1016.20 1016.20 1016.24 1016.24 1016.28 1016.28 1016.28 1016.24 1016.16 1016.16 1016.20 1016.24 1016.24 1016.20 1016.20 1016.16 1016.16 1016.12 1016.08 1016.00 1015.92 1015.84 1015.72 1015.60 1015.52 1015.44 1015.40 1015.28 1015.20 1015.12 1015.04 1015.00 1014.92 1014.84 1014.72 1014.56 1014.40 1014.28 1014.16 1014.00 1013.84 1013.72 1013.56 1013.44 1013.24 1013.08 1012.92 1012.72 1012.52 1012.28 1012.12 1012.00 1011.80 1011.56 1011.36 1011.12
1016.12 1016.16 1016.20 1016.16 1016.20 1016.16 1016.12 1016.12 1016.16 1016.16 1016.20 1016.24 1016.28 1016.28 1016.28 1016.28 1016.28 1016.32 1016.36 1016.32 1016.24 1016.20 1016.28 1016.28 1016.28 1016.28 1016.28 1016.24 1016.20 1016.16 1016.16 1016.08 1016.00 1015.92 1015.84 1015.72 1015.60 1015.52 1015.44 1015.32 1015.24 1015.16 1015.12 1015.00 1015.00 1014.92 1014.80 1014.68 1014.52 1014.36 1014.16 1014.04 1013.92 1013.80 1013.60 1013.44 1013.32 1013.12 1012.96 1012.76 1012.60 1012.40 1012.16 1011.92 1011.76 1011.60 1011.44 1011.20 1011.00
1016.20 1016.24 1016.24 1016.24 1016.24 1016.24 1016.16 1016.20 1016.24 1016.28 1016.28 1016.28 1016.36 1016.40 1016.40 1016.36 1016.36 1016.40 1016.40 1016.32 1016.32 1016.32 1016.36 1016.36 1016.32 1016.32 1016.28 1016.28 1016.24 1016.24 1016.16 1016.12 1016.00 1015.92 1015.84 1015.72 1015.56 1015.48 1015.36 1015.28 1015.20 1015.12 1015.08 1015.00 1014.96 1014.88 1014.76 1014.60 1014.48 1014.28 1014.12 1013.96 1013.84 1013.72 1013.56 1013.44 1013.24 1013.04 1012.84 1012.60 1012.44 1012.24 1012.00 1011.80 1011.56 1011.44 1011.24 1011.04 1010.88
1016.28 1016.28 1016.32 1016.28 1016.28 1016.28 1016.28 1016.28 1016.32 1016.36 1016.36 1016.40 1016.44 1016.48 1016.48 1016.44 1016.44 1016.44 1016.48 1016.44 1016.44 1016.44 1016.40 1016.36 1016.36 1016.32 1016.32 1016.28 1016.28 1016.20 1016.16 1016.08 1016.00 1015.88 1015.80 1015.68 1015.56 1015.44 1015.36 1015.28 1015.16 1015.12 1015.04 1015.00 1014.92 1014.84 1014.72 1014.56 1014.40 1014.24 1014.04 1013.84 1013.72 1013.60 1013.48 1013.36 1013.16 1013.00 1012.72 1012.52 1012.28 1012.00 1011.84 1011.64 1011.44 1011.28 1011.08 1010.88 1010.72
1016.28 1016.32 1016.40 1016.40 1016.40 1016.40 1016.40 1016.44 1016.44 1016.44 1016.44 1016.48 1016.56 1016.60 1016.60 1016.56 1016.52 1016.56 1016.56 1016.56 1016.56 1016.52 1016.44 1016.40 1016.40 1016.36 1016.36 1016.32 1016.28 1016.20 1016.16 1016.04 1015.96 1015.84 1015.76 1015.64 1015.56 1015.44 1015.32 1015.28 1015.16 1015.12 1015.00 1014.92 1014.84 1014.72 1014.64 1014.48 1014.32 1014.16 1014.00 1013.84 1013.68 1013.52 1013.40 1013.28 1013.08 1012.88 1012.64 1012.44 1012.16 1011.92 1011.68 1011.48 1011.28 1011.12 1010.96 1010.72 1010.52
1016.32 1016.40 1016.44 1016.48 1016.48 1016.52 1016.56 1016.56 1016.56 1016.56 1016.56 1016.60 1016.68 1016.72 1016.68 1016.64 1016.60 1016.64 1016.68 1016.64 1016.60 1016.56 1016.52 1016.48 1016.44 1016.44 1016.40 1016.32 1016.28 1016.20 1016.16 1016.04 1015.96 1015.84 1015.72 1015.60 1015.52 1015.44 1015.32 1015.28 1015.16 1015.08 1015.00 1014.88 1014.76 1014.68 1014.56 1014.44 1014.28 1014.08 1013.92 1013.76 1013.60 1013.44 1013.28 1013.12 1012.96 1012.72 1012.52 1012.28 1012.08 1011.84 1011.60 1011.40 1011.20 1011.00 1010.80 1010.60 1010.44
1016.40 1016.48 1016.56 1016.56 1016.60 1016.64 1016.72 1016.72 1016.72 1016.72 1016.76 1016.76 1016.80 1016.80 1016.76 1016.76 1016.72 1016.72 1016.72 1016.72 1016.64 1016.60 1016.56 1016.56 1016.52 1016.44 1016.44 1016.36 1016.28 1016.20 1016.16 1016.04 1015.96 1015.84 1015.72 1015.60 1015.52 1015.44 1015.32 1015.24 1015.12 1015.04 1014.96 1014.84 1014.72 1014.56 1014.44 1014.28 1014.16 1014.00 1013.84 1013.72 1013.56 1013.36 1013.20 1013.04 1012.84 1012.60 1012.40 1012.16 1011.92 1011.72 1011.52 1011.28 1011.12 1010.92 1010.72 1010.52 1010.28
1016.48 1016.56 1016.64 1016.68 1016.72 1016.80 1016.84 1016.88 1016.88 1016.88 1016.92 1016.92 1016.88 1016.92 1016.88 1016.88 1016.84 1016.80 1016.80 1016.72 1016.72 1016.64 1016.60 1016.56 1016.56 1016.52 1016.44 1016.36 1016.28 1016.20 1016.16 1016.04 1015.92 1015.84 1015.72 1015.64 1015.56 1015.44 1015.32 1015.20 1015.12 1015.00 1014.92 1014.76 1014.60 1014.48 1014.32 1014.16 1014.04 1013.92 1013.76 1013.60 1013.48 1013.32 1013.16 1013.00 1012.72 1012.52 1012.28 1012.04 1011.84 1011.64 1011.44 1011.24 1011.04 1010.84 1010.64 1010.44 1010.20
1016.56 1016.68 1016.72 1016.80 1016.88 1016.96 1016.96 1017.00 1017.00 1017.00 1016.96 1016.96 1017.00 1017.00 1016.96 1016.96 1016.88 1016.84 1016.80 1016.76 1016.72 1016.72 1016.68 1016.60 1016.56 1016.48 1016.44 1016.36 1016.28 1016.20 1016.12 1016.04 1015.92 1015.80 1015.72 1015.60 1015.52 1015.44 1015.28 1015.16 1015.08 1014.96 1014.84 1014.72 1014.56 1014.44 1014.24 1014.08 1013.92 1013.80 1013.68 1013.52 1013.44 1013.28 1013.08 1012.88 1012.64 1012.44 1012.20 1011.96 1011.72 1011.52 1011.32 1011.12 1010.96 1010.80 1010.60 1010.40 1010.16
1016.72 1016.80 1016.88 1016.96 1017.00 1017.04 1017.04 1017.08 1017.04 1017.00 1017.00 1017.00 1017.00 1017.00 1017.00 1016.96 1016.88 1016.84 1016.80 1016.76 1016.76 1016.72 1016.72 1016.64 1016.56 1016.44 1016.40 1016.32 1016.28 1016.16 1016.08 1016.00 1015.92 1015.80 1015.68 1015.56 1015.48 1015.36 1015.24 1015.12 1015.00 1014.88 1014.76 1014.60 1014.48 1014.32 1014.16 1014.00 1013.84 1013.72 1013.64 1013.52 1013.40 1013.20 1013.00 1012.76 1012.56 1012.28 1012.08 1011.88 1011.64 1011.40 1011.24 1011.08 1010.88 1010.68 1010.48 1010.28 1010.08
1016.84 1016.92 1017.00 1017.12 1017.12 1017.12 1017.12 1017.12 1017.08 1017.04 1017.00 1017.00 1017.00 1017.00 1017.00 1016.96 1016.88 1016.84 1016.80 1016.76 1016.76 1016.72 1016.68 1016.60 1016.56 1016.44 1016.36 1016.32 1016.24 1016.16 1016.04 1016.00 1015.88 1015.76 1015.64 1015.48 1015.44 1015.28 1015.16 1015.08 1014.92 1014.76 1014.64 1014.52 1014.36 1014.20 1014.04 1013.92 1013.80 1013.72 1013.60 1013.48 1013.32 1013.12 1012.92 1012.68 1012.44 1012.20 1012.00 1011.76 1011.56 1011.32 1011.16 1011.00 1010.80 1010.56 1010.40 1010.20 1010.00
1016.96 1017.08 1017.12 1017.16 1017.20 1017.24 1017.20 1017.16 1017.12 1017.08 1017.00 1017.00 1017.00 1017.00 1016.96 1016.92 1016.88 1016.84 1016.80 1016.80 1016.76 1016.72 1016.64 1016.56 1016.52 1016.44 1016.36 1016.28 1016.20 1016.12 1016.00 1015.96 1015.84 1015.72 1015.56 1015.44 1015.32 1015.20 1015.08 1015.00 1014.80 1014.68 1014.52 1014.40 1014.24 1014.12 1014.00 1013.88 1013.80 1013.72 1013.60 1013.44 1013.28 1013.04 1012.84 1012.60 1012.36 1012.12 1011.84 1011.68 1011.44 1011.24 1011.04 1010.84 1010.68 1010.48 1010.28 1010.04 1009.84
1017.08 1017.16 1017.20 1017.24 1017.24 1017.24 1017.20 1017.16 1017.12 1017.08 1017.04 1017.04 1017.00 1017.00 1016.96 1016.92 1016.88 1016.84 1016.84 1016.80 1016.72 1016.68 1016.64 1016.56 1016.52 1016.44 1016.36 1016.28 1016.16 1016.08 1015.96 1015.84 1015.72 1015.56 1015.48 1015.36 1015.24 1015.12 1015.00 1014.88 1014.76 1014.60 1014.44 1014.32 1014.16 1014.08 1013.96 1013.84 1013.76 1013.72 1013.56 1013.40 1013.16 1012.96 1012.72 1012.56 1012.32 1012.04 1011.80 1011.56 1011.32 1011.12 1010.96 1010.76 1010.56 1010.32 1010.12 1009.88 1009.72
1017.12 1017.20 1017.24 1017.24 1017.20 1017.16 1017.12 1017.12 1017.08 1017.04 1017.04 1017.00 1017.00 1017.00 1016.96 1016.92 1016.88 1016.84 1016.84 1016.76 1016.72 1016.64 1016.60 1016.56 1016.48 1016.44 1016.32 1016.24 1016.16 1016.00 1015.88 1015.72 1015.60 1015.44 1015.32 1015.24 1015.12 1015.04 1014.92 1014.84 1014.68 1014.52 1014.40 1014.28 1014.16 1014.08 1014.00 1013.88 1013.72 1013.56 1013.44 1013.28 1013.08 1012.88 1012.72 1012.44 1012.28 1012.04 1011.76 1011.52 1011.28 1011.00 1010.80 1010.60 1010.44 1010.20 1010.00 1009.72 1009.48
1017.16 1017.20 1017.20 1017.16 1017.12 1017.12 1017.08 1017.08 1017.04 1017.04 1017.04 1017.04 1017.00 1017.00 1016.92 1016.92 1016.84 1016.84 1016.76 1016.72 1016.68 1016.60 1016.56 1016.48 1016.44 1016.36 1016.28 1016.16 1016.04 1015.92 1015.80 1015.68 1015.56 1015.40 1015.28 1015.12 1015.04 1014.96 1014.84 1014.72 1014.56 1014.44 1014.32 1014.20 1014.08 1013.96 1013.88 1013.84 1013.72 1013.56 1013.40 1013.20 1013.00 1012.84 1012.60 1012.44 1012.24 1012.00 1011.72 1011.48 1011.24 1010.96 1010.68 1010.44 1010.24 1010.04 1009.84 1009.60 1009.36
1017.20 1017.20 1017.16 1017.12 1017.12 1017.08 1017.04 1017.04 1017.04 1017.04 1017.04 1017.00 1017.00 1016.96 1016.96 1016.92 1016.84 1016.84 1016.76 1016.72 1016.64 1016.56 1016.52 1016.44 1016.36 1016.28 1016.16 1016.08 1015.96 1015.84 1015.72 1015.60 1015.48 1015.32 1015.20 1015.08 1014.96 1014.84 1014.76 1014.64 1014.52 1014.36 1014.24 1014.08 1013.96 1013.84 1013.76 1013.72 1013.60 1013.52 1013.36 1013.20 1013.00 1012.76 1012.56 1012.32 1012.16 1011.92 1011.72 1011.44 1011.20 1010.92 1010.60 1010.28 1010.00 1009.80 1009.64 1009.44 1009.28
1017.16 1017.16 1017.16 1017.12 1017.08 1017.04 1017.00 1017.04 1017.04 1017.00 1017.00 1017.00 1016.96 1016.92 1016.92 1016.92 1016.84 1016.80 1016.72 1016.68 1016.60 1016.56 1016.48 1016.44 1016.32 1016.20 1016.12 1016.00 1015.84 1015.72 1015.64 1015.52 1015.44 1015.28 1015.12 1015.00 1014.88 1014.76 1014.64 1014.52 1014.40 1014.24 1014.12 1013.96 1013.84 1013.76 1013.68 1013.56 1013.44 1013.40 1013.32 1013.16 1013.00 1012.76 1012.52 1012.28 1012.00 1011.84 1011.64 1011.36 1011.12 1010.84 1010.52 1010.24 1009.92 1009.68 1009.44 1009.28 1009.20
1017.12 1017.12 1017.12 1017.08 1017.04 1017.00 1017.00 1017.00 1017.00 1017.00 1017.00 1016.96 1016.92 1016.92 1016.88 1016.84 1016.84 1016.76 1016.72 1016.64 1016.56 1016.48 1016.44 1016.36 1016.28 1016.16 1016.08 1015.96 1015.80 1015.68 1015.56 1015.44 1015.32 1015.24 1015.08 1014.96 1014.80 1014.68 1014.52 1014.40 1014.28 1014.16 1014.00 1013.84 1013.72 1013.64 1013.56 1013.44 1013.36 1013.28 1013.20 1013.12 1012.96 1012.76 1012.52 1012.28 1012.00 1011.76 1011.52 1011.28 1011.00 1010.72 1010.44 1010.16 1009.84 1009.64 1009.44 1009.28 1009.12
1017.12 1017.12 1017.12 1017.08 1017.04 1017.00 1017.00 1017.00 1017.00 1017.00 1017.00 1016.96 1016.92 1016.88 1016.84 1016.84 1016.76 1016.72 1016.68 1016.60 1016.52 1016.48 1016.44 1016.32 1016.28 1016.16 1016.00 1015.88 1015.72 1015.60 1015.44 1015.32 1015.20 1015.08 1014.96 1014.84 1014.68 1014.56 1014.44 1014.28 1014.16 1014.00 1013.88 1013.80 1013.64 1013.52 1013.44 1013.32 1013.24 1013.12 1013.08 1013.00 1012.88 1012.72 1012.48 1012.24 1012.00 1011.72 1011.44 1011.20 1010.92 1010.64 1010.40 1010.12 1009.88 1009.68 1009.48 1009.32 1009.12
1017.12 1017.08 1017.08 1017.04 1017.00 1017.00 1017.00 1017.00 1017.00 1017.00 1016.92 1016.92 1016.88 1016.84 1016.84 1016.80 1016.72 1016.72 1016.64 1016.60 1016.56 1016.48 1016.44 1016.32 1016.24 1016.12 1015.96 1015.84 1015.64 1015.52 1015.36 1015.24 1015.12 1015.00 1014.84 1014.72 1014.56 1014.44 1014.32 1014.20 1014.04 1013.92 1013.76 1013.68 1013.52 1013.40 1013.28 1013.24 1013.12 1013.08 1013.00 1012.92 1012.84 1012.68 1012.44 1012.24 1012.00 1011.72 1011.44 1011.12 1010.84 1010.60 1010.36 1010.16 1009.88 1009.72 1009.52 1009.32 1009.12
1017.12 1017.08 1017.08 1017.04 1017.00 1017.00 1017.00 1017.00 1017.00 1016.96 1016.96 1016.92 1016.84 1016.84 1016.84 1016.80 1016.72 1016.72 1016.64 1016.60 1016.56 1016.44 1016.40 1016.28 1016.16 1016.00 1015.84 1015.72 1015.56 1015.44 1015.28 1015.12 1015.00 1014.88 1014.76 1014.64 1014.48 1014.32 1014.20 1014.12 1013.96 1013.80 1013.64 1013.52 1013.44 1013.28 1013.20 1013.12 1013.04 1013.00 1012.92 1012.84 1012.72 1012.60 1012.40 1012.16 1011.88 1011.64 1011.36 1011.08 1010.80 1010.56 1010.32 1010.12 1009.88 1009.72 1009.52 1009.32 1009.12
1017.12 1017.08 1017.08 1017.04 1017.00 1017.00 1017.00 1017.00 1017.00 1016.96 1016.88 1016.88 1016.84 1016.84 1016.84 1016.80 1016.76 1016.72 1016.64 1016.60 1016.52 1016.40 1016.28 1016.16 1016.04 1015.88 1015.76 1015.56 1015.44 1015.28 1015.16 1015.04 1014.92 1014.80 1014.68 1014.56 1014.40 1014.24 1014.08 1013.96 1013.84 1013.68 1013.52 1013.40 1013.28 1013.20 1013.12 1013.04 1012.96 1012.88 1012.80 1012.72 1012.64 1012.48 1012.28 1012.08 1011.84 1011.56 1011.28 1011.00 1010.72 1010.52 1010.28 1010.08 1009.84 1009.68 1009.52 1009.32 1009.12
1017.08 1017.08 1017.08 1017.04 1017.04 1017.04 1017.04 1017.00 1017.00 1016.96 1016.88 1016.88 1016.84 1016.84 1016.84 1016.80 1016.72 1016.72 1016.64 1016.56 1016.44 1016.32 1016.20 1016.08 1015.96 1015.80 1015.64 1015.48 1015.32 1015.20 1015.08 1014.96 1014.84 1014.72 1014.56 1014.44 1014.32 1014.16 1014.00 1013.84 1013.68 1013.56 1013.44 1013.28 1013.20 1013.12 1013.04 1012.96 1012.88 1012.80 1012.72 1012.60 1012.52 1012.36 1012.16 1012.00 1011.72 1011.44 1011.12 1010.84 1010.64 1010.44 1010.28 1010.08 1009.84 1009.64 1009.44 1009.24 1009.04
1017.12 1017.08 1017.04 1017.04 1017.04 1017.04 1017.00 1017.00 1016.96 1016.92 1016.92 1016.88 1016.84 1016.84 1016.84 1016.80 1016.72 1016.64 1016.56 1016.48 1016.40 1016.28 1016.16 1016.00 1015.88 1015.76 1015.60 1015.44 1015.28 1015.12 1015.00 1014.84 1014.72 1014.60 1014.48 1014.32 1014.20 1014.04 1013.88 1013.72 1013.56 1013.44 1013.32 1013.24 1013.12 1013.04 1012.96 1012.84 1012.80 1012.72 1012.64 1012.48 1012.36 1012.24 1012.04 1011.84 1011.56 1011.28 1011.00 1010.76 1010.56 1010.36 1010.16 1010.00 1009.80 1009.60 1009.40 1009.12 1008.88
1017.12 1017.08 1017.04 1017.04 1017.04 1017.04 1017.00 1017.00 1016.96 1016.92 1016.92 1016.88 1016.84 1016.84 1016.80 1016.80 1016.72 1016.60 1016.48 1016.40 1016.28 1016.20 1016.08 1015.96 1015.80 1015.68 1015.52 1015.40 1015.28 1015.12 1014.96 1014.76 1014.64 1014.52 1014.44 1014.28 1014.12 1013.92 1013.72 1013.60 1013.44 1013.36 1013.28 1013.16 1013.04 1013.00 1012.88 1012.80 1012.72 1012.64 1012.52 1012.40 1012.28 1012.08 1011.84 1011.60 1011.36 1011.12 1010.88 1010.68 1010.48 1010.28 1010.12 1009.92 1009.72 1009.48 1009.28 1009.00 1008.76
1017.12 1017.08 1017.04 1017.04 1017.04 1017.04 1017.00 1017.00 1016.96 1016.92 1016.92 1016.88 1016.84 1016.80 1016.76 1016.72 1016.68 1016.56 1016.48 1016.36 1016.24 1016.12 1015.96 1015.84 1015.68 1015.56 1015.40 1015.28 1015.12 1015.04 1014.92 1014.72 1014.56 1014.40 1014.28 1014.16 1014.00 1013.80 1013.60 1013.44 1013.32 1013.24 1013.16 1013.08 1013.00 1012.92 1012.84 1012.72 1012.64 1012.52 1012.40 1012.28 1012.16 1011.96 1011.72 1011.48 1011.28 1011.00 1010.80 1010.60 1010.40 1010.20 1010.00 1009.76 1009.56 1009.28 1009.08 1008.84 1008.64
1017.12 1017.08 1017.08 1017.08 1017.04 1017.04 1017.04 1017.00 1017.00 1016.96 1016.92 1016.88 1016.84 1016.84 1016.76 1016.72 1016.60 1016.52 1016.44 1016.28 1016.16 1016.00 1015.84 1015.72 1015.60 1015.44 1015.32 1015.20 1015.08 1014.96 1014.84 1014.68 1014.52 1014.32 1014.16 1014.00 1013.88 1013.72 1013.48 1013.32 1013.24 1013.16 1013.08 1013.00 1012.92 1012.84 1012.72 1012.64 1012.48 1012.40 1012.28 1012.12 1011.96 1011.76 1011.56 1011.40 1011.16 1010.96 1010.72 1010.48 1010.28 1010.04 1009.84 1009.60 1009.36 1009.08 1008.84 1008.68 1008.48
1017.12 1017.12 1017.12 1017.12 1017.08 1017.04 1017.04 1017.00 1017.00 1017.00 1016.92 1016.88 1016.84 1016.84 1016.76 1016.68 1016.56 1016.44 1016.32 1016.24 1016.08 1015.92 1015.76 1015.64 1015.52 1015.40 1015.28 1015.12 1015.00 1014.84 1014.72 1014.60 1014.44 1014.28 1014.08 1013.92 1013.80 1013.64 1013.44 1013.24 1013.12 1013.04 1013.00 1012.92 1012.80 1012.72 1012.60 1012.48 1012.36 1012.24 1012.16 1012.00 1011.84 1011.64 1011.48 1011.28 1011.08 1010.84 1010.60 1010.40 1010.12 1009.84 1009.64 1009.44 1009.16 1008.88 1008.68 1008.52 1008.36
1017.12 1017.12 1017.12 1017.12 1017.12 1017.08 1017.08 1017.04 1017.00 1017.00 1016.92 1016.88 1016.84 1016.76 1016.72 1016.60 1016.52 1016.40 1016.28 1016.16 1016.08 1015.92 1015.72 1015.56 1015.44 1015.28 1015.20 1015.08 1014.92 1014.72 1014.56 1014.48 1014.36 1014.20 1014.00 1013.84 1013.68 1013.56 1013.44 1013.20 1013.00 1012.96 1012.88 1012.80 1012.68 1012.56 1012.44 1012.32 1012.24 1012.16 1012.00 1011.88 1011.72 1011.56 1011.40 1011.20 1010.96 1010.72 1010.52 1010.28 1009.96 1009.68 1009.44 1009.24 1009.00 1008.76 1008.52 1008.36 1008.24
1017.12 1017.16 1017.16 1017.12 1017.12 1017.12 1017.08 1017.04 1017.00 1017.00 1016.92 1016.88 1016.84 1016.72 1016.68 1016.56 1016.44 1016.32 1016.20 1016.08 1016.00 1015.84 1015.72 1015.56 1015.40 1015.24 1015.12 1015.00 1014.84 1014.60 1014.44 1014.28 1014.20 1014.08 1013.92 1013.76 1013.56 1013.44 1013.32 1013.16 1012.96 1012.84 1012.76 1012.68 1012.52 1012.40 1012.28 1012.20 1012.12 1012.00 1011.88 1011.76 1011.68 1011.52 1011.32 1011.12 1010.88 1010.60 1010.36 1010.12 1009.84 1009.52 1009.24 1009.00 1008.84 1008.68 1008.44 1008.24 1008.12
1017.12 1017.16 1017.16 1017.16 1017.16 1017.12 1017.12 1017.08 1017.00 1017.00 1016.92 1016.88 1016.80 1016.72 1016.60 1016.48 1016.40 1016.24 1016.12 1016.00 1015.88 1015.76 1015.64 1015.48 1015.32 1015.20 1015.08 1014.92 1014.76 1014.56 1014.36 1014.16 1014.00 1013.92 1013.80 1013.64 1013.48 1013.32 1013.20 1013.04 1012.84 1012.72 1012.60 1012.48 1012.40 1012.24 1012.12 1012.00 1011.96 1011.88 1011.76 1011.68 1011.56 1011.44 1011.28 1011.08 1010.80 1010.52 1010.24 1010.00 1009.72 1009.44 1009.12 1008.84 1008.72 1008.56 1008.40 1008.20 1007.96
Wind_Speed
6 5 4 4 4 4 3 3 3 3 3 3 3 3 3 3 3 3 3 3 3 3 3 3 3 3 4 6 6 6 7 7 7 7 7 8 7 7 8 7 8 8 8 9 9 8 8 8 7 6 6 6 7 7 7 6 7 8 8 9 8 9 10 11 11 12 13 13 11
6 5 5 4 4 3 3 3 3 3 3 3 3 3 3 3 3 3 3 3 3 3 3 3 3 4 5 6 6 6 7 7 7 7 8 8 8 8 7 7 8 8 8 9 9 8 7 8 8 7 6 6 7 7 7 7 7 8 9 10 9 8 8 9 10 11 12 12 11
5 5 4 4 4 4 3 3 3 4 4 4 3 3 3 3 3 3 3 3 3 3 3 3 3 4 5 6 6 6 6 7 7 7 7 7 8 8 8 8 8 9 9 8 8 8 8 8 8 7 6 6 7 7 7 7 8 8 9 10 8 8 7 8 9 10 10 9 10
5 5 5 5 6 5 5 4 4 4 4 3 3 3 3 3 2 2 2 2 3 3 3 3 3 4 5 5 6 6 7 7 7 8 7 7 8 8 8 8 9 9 9 9 9 9 9 9 7 6 7 8 8 8 7 7 8 8 8 8 8 8 8 8 8 8 8 8 10
6 5 5 5 6 6 5 5 5 5 4 3 3 3 3 2 2 2 2 2 2 3 3 4 4 4 4 5 6 7 7 8 7 7 7 8 8 8 9 9 9 9 9 9 9 9 10 10 7 6 7 7 7 7 7 8 9 8 8 7 7 7 8 8 8 8 8 8 9
5 5 5 5 6 5 5 5 5 5 4 3 3 3 3 3 2 2 3 2 3 3 4 4 4 4 5 6 7 7 7 7 7 7 7 8 8 8 9 9 10 9 9 9 10 10 10 9 7 6 6 7 7 7 8 10 9 9 8 8 8 8 8 9 8 8 9 10 11
5 6 6 6 6 5 5 5 4 4 4 3 4 4 4 3 3 4 4 3 3 4 4 4 4 5 6 6 6 7 7 7 7 8 8 8 8 9 9 9 10 10 10 10 10 10 9 9 7 7 7 7 6 8 9 9 9 9 9 10 8 8 8 10 9 9 10 13 14
5 5 5 5 5 5 5 5 4 4 4 3 4 4 4 4 4 4 4 4 4 4 3 3 4 5 6 6 6 7 7 8 8 8 8 8 9 9 9 10 10 10 10 10 10 10 10 8 7 7 7 7 6 7 9 11 11 11 11 11 10 9 8 9 9 9 11 14 16
5 5 5 5 5 5 5 5 5 4 4 4 4 4 4 4 4 4 4 4 4 4 3 3 5 6 7 7 7 7 7 7 8 8 8 9 9 10 10 9 10 10 10 10 10 11 10 8 7 7 7 7 7 8 10 12 13 13 13 11 11 10 10 10 11 12 13 14 16
5 4 4 4 4 4 4 4 4 4 4 4 4 4 4 3 4 4 4 4 4 4 4 4 5 6 7 7 7 7 7 7 7 8 9 9 9 10 10 9 10 10 10 10 10 10 10 8 8 8 9 8 10 11 12 13 13 14 13 10 11 12 14 13 14 14 15 14 15
5 4 4 4 4 4 4 4 4 4 4 4 4 4 4 3 4 4 4 4 4 5 5 5 6 6 6 6 6 7 7 7 7 8 9 10 10 10 10 10 10 11 11 10 10 9 9 8 9 10 11 11 11 12 12 13 14 14 14 12 13 15 16 16 15 14 14 14 16
4 4 4 4 4 4 4 4 3 3 3 3 4 4 4 4 4 4 5 5 5 5 5 5 5 6 6 6 6 7 7 8 8 9 9 10 10 11 11 11 11 11 11 11 10 9 8 9 10 12 13 13 11 11 12 14 14 15 15 15 15 15 16 16 16 14 13 14 15
4 3 3 4 4 4 4 3 3 3 3 3 4 4 4 4 4 5 5 6 6 5 5 5 5 5 6 6 6 7 7 8 9 9 10 10 10 11 11 11 11 11 11 11 10 9 9 10 12 13 14 14 12 11 12 14 15 15 16 16 16 16 16 17 17 16 15 16 16
3 3 4 4 4 4 4 3 3 3 3 4 4 4 4 4 4 5 5 6 6 6 5 5 5 5 6 7 7 8 8 8 9 10 10 11 11 11 11 11 11 11 11 10 10 11 12 12 13 14 14 15 14 14 14 14 15 15 16 17 17 17 17 17 17 17 17 17 17
3 4 4 4 4 4 3 3 3 3 3 4 4 4 4 4 4 5 5 6 6 6 5 5 5 6 6 7 8 8 9 9 10 10 11 11 11 11 11 11 12 12 12 11 11 12 12 13 14 14 14 14 15 15 15 15 15 16 16 16 17 18 18 18 18 18 17 18 18
3 4 4 4 4 4 4 3 3 3 4 4 4 5 5 4 4 5 5 6 5 5 5 6 6 6 7 7 8 9 9 9 10 10 11 11 11 12 12 12 12 12 13 13 13 13 13 13 13 14 14 15 15 15 15 16 16 16 17 17 17 18 18 18 18 18 18 18 18
3 3 4 4 4 4 4 4 4 4 4 4 5 5 5 5 5 5 5 6 5 6 6 7 7 7 7 7 8 8 8 9 9 10 10 11 12 12 12 13 13 13 13 13 14 14 14 14 13 14 14 14 15 15 16 16 16 17 17 18 18 18 18 18 18 18 19 19 19
3 3 3 4 4 4 4 4 4 4 4 5 5 5 5 5 5 5 5 6 6 7 7 8 7 7 8 8 8 8 8 9 9 10 10 11 12 12 13 13 13 13 13 14 14 14 15 15 15 14 14 14 14 15 15 16 17 17 18 18 18 18 18 18 18 18 18 19 19
3 3 3 4 4 4 4 4 4 4 4 5 5 5 5 5 6 6 6 6 6 7 8 8 8 8 8 9 9 8 8 9 10 11 11 12 12 12 13 13 13 13 14 14 14 15 15 15 15 14 14 14 14 15 16 16 17 17 17 18 18 18 18 18 18 18 18 18 19
3 3 4 4 4 4 4 4 4 4 4 4 5 5 5 6 6 6 6 7 7 7 8 8 8 8 9 9 10 10 9 9 10 11 12 12 12 13 13 14 14 14 14 14 14 14 15 15 14 14 14 15 16 16 17 17 17 17 17 17 17 18 18 18 18 18 19 19 19
3 3 3 3 3 3 4 4 4 4 5 5 5 5 6 6 6 6 7 7 7 8 8 8 9 9 9 10 10 10 10 9 10 11 12 12 12 13 13 13 14 14 13 14 14 14 15 14 14 14 14 15 16 16 17 17 17 17 17 16 17 17 18 18 18 19 19 19 19
3 3 3 3 3 3 4 4 4 5 5 5 5 6 6 6 6 7 7 7 7 8 8 8 9 9 10 10 10 11 10 10 10 11 11 11 12 12 13 13 13 14 14 14 14 14 14 14 14 14 14 15 16 16 17 17 17 17 18 18 18 19 19 19 18 18 18 19 18
2 2 2 2 3 3 4 4 4 5 5 5 5 6 6 6 7 7 7 7 7 8 8 8 8 9 10 10 11 11 11 11 11 11 12 12 12 13 13 13 13 14 14 13 12 12 12 12 13 13 14 15 16 17 17 17 17 17 18 18 19 19 19 18 18 18 18 18 18
2 2 2 2 3 3 4 4 4 5 5 5 6 6 6 7 7 7 8 8 8 8 8 8 8 9 10 10 11 11 12 12 12 13 13 13 13 13 13 13 12 12 12 11 10 11 11 11 11 12 13 14 15 15 16 17 17 17 18 18 19 19 19 18 18 18 18 18 17
1 2 2 3 3 3 4 4 4 5 5 5 6 6 6 7 7 7 8 8 8 9 9 9 9 9 9 10 10 11 11 12 13 13 13 13 13 13 13 12 11 11 10 9 13 15 16 15 13 13 13 13 14 15 15 16 17 17 18 18 18 18 18 18 18 18 18 17 16
2 2 3 3 3 4 4 4 4 5 5 5 6 6 7 7 7 8 8 9 9 9 9 10 9 9 9 9 10 11 11 11 12 12 13 13 14 14 13 11 11 9 9 11 15 18 19 20 19 17 15 13 14 14 15 15 16 17 18 18 18 18 18 18 18 17 17 16 16
2 3 3 3 4 4 4 4 4 5 5 5 6 6 7 7 7 8 8 9 9 9 9 9 9 9 9 9 10 11 11 11 11 12 13 13 14 14 13 12 11 10 10 13 17 19 20 21 21 20 18 15 14 14 14 14 16 16 17 17 17 17 17 17 17 17 17 16 16
2 3 3 4 4 4 4 4 4 5 5 6 6 6 7 7 8 8 9 9 9 9 9 8 8 8 8 8 10 11 12 12 12 12 12 13 14 14 14 12 12 12 13 17 20 21 21 21 21 21 20 18 15 14 14 15 15 15 15 15 15 16 16 16 16 15 16 16 16
2 3 4 4 4 4 4 4 5 5 6 6 6 7 7 8 8 9 9 9 10 9 9 8 7 7 8 9 10 11 12 13 12 12 12 13 14 14 14 14 13 14 16 20 21 21 21 21 21 21 21 20 15 13 12 13 13 13 13 13 13 14 15 15 14 14 15 15 16
3 3 4 4 4 4 4 5 5 5 6 6 6 7 8 8 8 9 9 10 10 9 9 8 8 9 10 11 11 12 12 12 12 12 13 14 15 15 14 15 14 15 17 20 21 21 21 21 21 21 22 22 18 14 12 12 13 13 13 12 14 15 16 16 16 16 16 15 16
3 3 4 4 4 4 5 5 5 6 6 6 7 7 8 8 9 9 9 10 10 10 10 10 11 12 12 12 12 12 12 12 12 12 13 14 15 15 15 16 16 16 17 20 21 21 21 21 21 21 22 22 18 15 12 13 13 13 13 13 14 15 16 15 15 16 16 17 17
3 3 4 4 4 5 5 5 6 6 7 7 8 8 8 9 9 9 9 9 10 10 11 11 12 12 13 13 13 13 13 13 13 13 13 14 15 16 16 16 16 16 17 19 20 21 21 21 21 22 22 22 19 16 14 14 14 14 14 15 16 16 16 15 14 16 17 18 17
3 3 4 4 4 5 5 6 6 7 7 8 8 8 8 9 9 9 9 9 10 10 11 12 12 13 13 13 14 14 14 14 14 15 15 15 16 16 17 16 15 15 17 19 21 21 21 22 22 22 22 22 18 16 14 14 13 13 13 14 15 15 16 17 16 16 17 18 17
3 4 4 4 5 5 6 6 6 7 7 8 8 8 9 9 9 10 10 9 9 10 10 11 12 12 12 13 13 14 14 13 14 15 15 16 16 17 17 15 12 14 17 20 21 21 22 22 21 21 22 21 17 14 14 15 13 13 13 14 15 15 16 16 17 17 17 18 17
3 4 4 4 5 5 6 6 7 7 8 8 8 9 9 9 10 10 10 10 10 10 10 11 11 12 12 13 13 14 15 15 15 15 16 16 17 17 17 16 14 16 19 21 21 21 21 21 21 21 21 19 14 12 13 14 14 14 15 15 15 16 16 17 16 16 16 17 16
3 4 4 5 5 6 6 7 7 8 8 8 9 9 9 10 10 10 10 11 11 11 11 11 12 12 13 13 13 14 14 15 16 16 16 16 17 17 17 17 16 17 19 21 21 21 21 21 21 21 19 16 12 11 12 12 12 13 15 16 16 16 17 16 16 16 15 15 15
3 4 5 5 6 6 7 7 7 8 8 9 9 9 10 10 10 10 10 10 11 11 12 12 12 13 13 14 14 14 14 15 16 17 17 17 17 17 17 17 17 17 18 20 21 21 20 20 20 20 18 14 12 11 11 11 11 12 13 15 15 15 15 15 14 15 15 15 15
4 4 5 5 6 6 7 7 8 8 9 9 9 9 9 10 10 10 10 10 10 11 12 12 13 13 14 14 14 15 15 15 16 17 17 17 17 17 17 18 17 16 17 19 20 20 20 19 19 19 17 13 12 11 11 10 11 11 12 13 13 14 14 13 12 13 14 15 17
4 4 5 5 6 6 7 7 8 8 9 9 9 9 10 10 9 9 10 10 10 11 12 13 13 14 14 15 15 15 16 16 16 17 17 17 16 17 17 17 17 16 16 18 19 20 19 19 19 19 17 14 12 11 10 10 11 12 12 12 12 13 13 12 12 12 13 15 18
4 4 5 5 6 6 7 8 8 8 8 8 9 10 10 10 10 10 10 10 10 11 12 12 14 14 14 15 15 16 16 16 16 16 16 17 17 17 17 17 16 16 17 18 19 19 19 18 18 18 17 13 11 10 9 10 11 12 12 12 12 12 12 12 12 12 12 14 16
4 4 5 5 6 6 7 8 8 8 8 9 9 9 9 9 10 10 10 10 11 11 11 12 13 15 15 15 14 15 16 17 17 16 16 17 16 16 16 16 16 16 16 16 17 18 18 18 18 18 17 13 11 10 9 10 11 12 13 13 12 12 12 12 12 11 11 12 13
Wind_Direction
84 84 83 84 87 87 86 82 72 62 54 48 46 43 39 34 36 36 33 27 19 13 11 14 12 6 359 354 349 345 341 339 339 338 335 332 332 332 332 330 329 327 326 325 325 325 325 325 322 317 311 306 303 303 304 306 310 310 310 309 309 309 309 308 306 304 304 304 303
84 87 90 93 94 95 93 89 82 72 64 55 48 44 41 35 32 30 28 27 19 11 6 8 6 0 354 350 346 340 337 335 335 334 331 329 329 329 329 327 327 326 325 325 325 324 323 322 319 314 308 303 302 302 304 308 310 309 309 310 310 310 309 306 304 304 304 304 304
80 82 83 84 84 82 81 78 73 69 64 59 53 48 43 38 31 26 22 18 13 8 5 6 3 356 350 346 340 336 333 332 332 330 328 326 327 327 327 327 326 325 325 324 324 322 321 319 315 310 305 302 302 302 304 307 309 309 310 312 311 309 306 303 303 303 304 303 304
69 67 65 65 67 68 68 66 64 62 59 55 54 52 49 41 30 21 14 7 5 7 8 5 358 352 346 339 335 332 330 330 329 327 325 324 324 325 326 326 325 325 325 324 323 320 318 316 312 307 302 301 301 302 304 308 310 310 310 311 309 306 304 301 302 303 302 302 302
65 61 59 59 61 62 62 59 58 57 55 48 48 49 49 42 27 15 8 1 2 5 5 0 352 345 339 335 332 331 330 329 329 326 323 323 323 324 324 325 325 325 323 322 321 319 317 315 310 305 302 301 301 302 303 306 308 309 309 308 306 304 302 300 301 301 300 299 299
66 62 58 55 55 57 57 54 54 53 51 43 39 39 37 29 13 4 0 0 1 3 2 355 347 342 339 337 333 331 330 329 327 325 323 322 322 323 323 324 324 323 322 320 319 317 316 315 310 305 301 300 299 300 303 307 308 309 307 304 303 301 300 299 299 298 298 296 296
65 62 58 54 51 50 50 49 48 49 49 43 35 31 28 21 4 355 354 356 0 2 359 351 345 342 340 336 333 331 329 328 325 324 323 322 322 322 322 322 322 321 320 319 318 317 316 315 310 305 302 301 301 303 306 308 308 306 304 302 300 299 298 298 297 296 295 294 294
65 61 58 54 51 48 45 42 40 41 44 43 31 24 19 15 358 349 349 356 0 358 352 344 342 339 337 333 331 330 328 326 324 323 323 321 320 320 320 320 319 319 319 318 317 316 315 313 308 304 302 303 302 303 306 307 305 303 301 299 298 297 296 295 295 293 292 292 293
66 62 58 55 52 48 44 41 37 36 36 37 26 16 10 7 352 347 350 358 353 344 339 342 342 338 335 331 330 329 327 325 323 322 320 319 318 317 317 318 317 317 316 316 315 314 313 310 305 303 302 303 302 303 303 304 302 301 299 298 297 296 295 294 293 293 292 291 292
62 57 53 51 47 43 41 42 39 33 29 28 14 5 0 356 348 349 352 351 334 331 337 349 343 337 333 331 330 328 326 323 321 319 317 316 315 315 315 315 315 314 314 314 313 313 311 307 304 302 302 301 301 301 301 302 301 300 299 297 297 296 295 294 293 293 292 291 292
57 51 45 41 36 31 29 33 34 29 21 19 5 354 347 346 349 350 347 334 326 333 344 350 341 335 331 330 327 325 324 322 319 316 315 313 312 312 312 311 311 311 311 312 312 311 309 305 302 301 301 300 300 301 301 301 301 300 299 297 296 295 295 294 293 293 292 292 292
56 51 44 37 28 22 21 23 24 18 11 9 0 349 341 342 349 347 339 330 335 341 346 345 337 332 329 326 325 323 321 318 316 314 312 311 310 309 309 309 309 309 310 310 310 308 305 303 301 301 300 301 300 300 301 302 301 300 299 297 296 295 295 295 295 294 294 294 294
56 50 43 34 24 20 18 18 14 6 0 358 356 347 339 337 344 343 339 337 342 343 341 338 334 331 327 325 322 320 317 315 313 311 309 308 308 308 308 308 308 309 309 308 308 306 303 301 301 300 301 301 301 301 301 302 301 300 299 298 297 296 296 296 296 296 295 295 294
57 48 39 29 22 18 15 11 6 357 353 354 355 346 338 334 342 344 344 342 341 339 335 333 332 330 327 323 319 316 314 312 310 309 307 307 307 307 307 307 308 308 307 306 305 303 302 301 301 300 300 301 301 301 301 301 300 299 298 298 297 297 297 297 297 297 297 296 295
58 48 37 27 21 17 13 6 0 354 352 354 353 345 337 333 342 347 345 340 337 335 333 333 331 328 324 321 317 315 313 311 309 308 307 306 307 307 308 307 307 307 306 305 303 302 301 300 300 300 300 300 301 301 301 301 299 299 298 297 297 298 298 298 298 298 297 297 296
55 46 37 27 21 16 12 7 0 356 353 353 348 341 336 336 343 344 342 338 334 333 332 332 329 325 321 318 316 314 312 310 308 307 306 306 307 307 307 307 306 305 305 304 302 301 300 300 300 300 300 300 301 302 302 301 300 299 298 297 298 298 298 299 299 298 298 298 297
52 44 35 27 21 17 12 7 0 354 349 346 341 337 336 338 340 339 337 335 332 330 329 328 326 322 318 316 315 313 311 309 307 306 305 305 306 306 306 305 304 304 303 303 302 301 301 300 299 299 300 301 302 302 302 301 300 299 299 298 298 298 298 299 299 299 299 298 298
48 41 33 27 20 15 10 4 355 346 340 336 334 334 334 335 333 333 331 331 329 328 326 324 322 318 315 313 313 311 309 307 305 304 303 303 304 304 303 303 302 302 302 301 301 301 300 300 300 300 301 302 303 303 302 301 300 300 299 299 299 299 299 299 299 299 299 299 299
45 36 29 24 16 8 1 353 344 337 333 329 329 330 330 330 329 328 327 328 328 326 323 320 317 315 312 311 311 309 308 305 304 303 302 301 301 301 301 301 301 301 301 300 300 300 299 299 300 302 303 305 304 303 302 301 300 300 300 299 299 299 299 299 299 299 299 299 299
40 33 25 18 7 356 348 339 334 330 328 326 327 327 327 327 327 327 326 326 325 322 319 316 314 312 311 311 310 309 307 305 303 302 300 300 300 299 300 300 300 300 300 300 299 299 299 300 302 304 306 306 305 304 303 302 301 300 300 300 300 300 300 300 300 299 299 298 298
38 29 19 8 355 342 334 328 326 326 325 325 326 327 327 327 327 327 326 325 322 319 316 314 313 312 312 311 310 309 307 304 302 300 299 298 298 298 299 300 300 300 300 300 299 299 300 301 304 306 307 306 304 303 303 302 302 302 301 301 300 300 300 300 300 299 299 298 297
34 20 7 352 338 327 322 321 322 323 325 326 327 328 328 328 328 327 325 323 320 317 315 314 313 312 312 310 309 307 305 302 300 298 298 298 298 299 299 300 300 300 300 300 300 301 302 304 305 306 306 305 304 303 303 303 303 303 302 302 301 301 301 301 300 299 299 298 297
24 6 347 330 318 315 315 319 322 325 326 328 329 330 329 329 329 327 325 323 320 318 316 314 313 312 310 308 306 304 303 301 299 298 298 298 299 300 301 301 301 300 300 300 301 302 303 304 305 305 304 304 304 304 304 305 304 304 303 303 302 302 301 301 300 299 298 297 296
7 341 324 312 310 312 316 322 325 328 329 331 331 331 331 331 329 327 325 322 320 318 317 315 313 310 308 306 304 302 302 301 300 300 300 301 301 302 302 302 301 300 300 299 300 301 302 302 303 304 304 304 304 305 305 305 305 304 304 303 303 302 302 301 300 299 298 297 297
335 314 306 304 309 313 319 325 328 329 330 331 332 332 332 332 330 327 324 322 320 319 317 315 312 310 307 305 303 302 301 301 301 302 303 303 303 303 303 302 301 300 299 298 298 298 299 301 302 304 305 305 306 305 305 305 304 304 304 303 303 302 301 300 299 298 298 298 300
305 301 303 308 312 317 322 328 329 329 330 332 333 334 333 332 328 325 323 321 320 319 318 315 313 310 308 305 304 302 302 302 302 303 303 304 304 303 303 302 301 299 297 297 298 300 301 302 303 304 305 306 306 306 306 305 305 304 303 302 301 301 300 300 300 300 300 301 304
296 302 308 312 316 321 326 330 330 330 332 334 336 335 333 330 326 323 322 320 320 319 317 315 312 310 308 305 303 303 303 303 303 303 302 303 303 303 303 301 300 298 298 298 300 301 302 303 304 305 306 306 307 307 307 306 305 304 303 301 300 300 300 300 301 302 304 306 308
302 310 314 317 321 326 329 331 331 333 336 337 336 333 330 327 324 322 321 320 319 319 317 314 313 311 307 305 304 304 304 303 303 302 302 302 302 302 302 301 299 299 299 300 301 302 303 304 305 307 308 309 308 307 306 305 304 304 303 301 301 300 300 301 303 305 307 309 310
311 316 319 322 326 328 331 333 335 336 337 337 334 331 328 325 324 322 321 320 319 319 317 315 313 309 306 304 303 303 303 303 303 303 303 302 302 301 301 300 299 299 300 301 301 302 303 305 306 308 310 312 311 309 307 305 304 304 303 302 302 302 302 303 305 307 308 309 309
318 322 324 326 327 330 332 335 336 336 336 335 333 330 327 324 323 322 321 320 319 317 314 312 308 306 304 303 303 303 303 304 304 304 304 303 303 302 301 301 300 300 300 301 302 303 305 307 309 310 312 313 312 309 306 305 304 303 302 301 301 301 302 303 305 307 308 308 308
323 325 326 326 328 331 333 335 335 335 336 334 332 329 326 324 323 322 320 318 315 312 309 307 305 303 303 303 304 304 305 305 306 305 304 303 303 302 301 301 300 300 300 302 303 305 307 309 311 312 313 314 313 311 308 306 304 303 301 300 300 302 303 304 306 307 307 307 306
324 327 327 327 329 331 333 334 335 336 335 333 330 327 325 323 321 319 317 314 311 309 308 307 305 305 304 305 305 306 306 306 306 305 304 303 302 302 301 301 301 301 302 304 306 308 310 311 312 313 314 314 313 311 308 306 304 302 300 299 300 302 304 306 307 307 306 306 304
326 326 327 327 329 331 334 335 337 336 334 331 328 326 324 321 319 316 314 311 309 308 307 307 306 306 306 307 307 307 307 306 305 304 304 303 302 302 301 301 301 302 304 306 308 310 311 313 313 313 314 314 313 311 308 306 303 301 300 300 302 304 306 306 306 305 305 303 302
327 327 327 329 332 334 335 337 337 335 332 328 326 324 322 320 317 314 312 310 309 307 306 305 305 305 306 307 307 307 307 306 305 304 304 303 302 302 301 301 301 303 306 308 310 311 312 313 313 313 313 314 312 310 308 306 303 302 302 303 304 305 306 306 305 304 302 301 301
326 327 330 334 335 336 337 337 336 332 329 326 324 322 320 317 314 312 310 309 307 305 304 303 304 304 305 306 306 306 306 305 305 304 304 304 303 302 302 302 302 304 307 309 311 312 312 312 312 312 313 313 311 309 307 306 305 305 305 306 306 306 306 305 303 302 301 300 300
328 331 334 337 337 337 337 336 333 329 326 323 321 320 317 315 311 309 308 308 307 306 305 306 306 307 307 307 307 307 306 306 305 304 304 303 303 303 302 303 304 306 309 310 311 311 311 311 311 311 312 312 310 309 308 307 307 307 307 307 306 305 305 303 302 301 300 300 301
332 335 337 337 336 336 334 333 329 325 323 320 318 316 314 311 309 308 308 308 307 307 307 308 308 308 308 308 307 306 305 305 304 304 303 303 304 304 304 304 306 307 309 309 309 309 309 310 310 311 312 312 310 309 309 308 307 306 306 306 304 303 303 302 301 301 301 302 303
338 339 338 336 335 333 331 328 324 321 318 316 314 312 310 309 307 307 308 309 309 309 309 309 309 309 308 308 306 305 304 303 303 303 303 303 304 304 305 305 306 307 307 308 308 308 308 309 310 312 313 312 312 311 310 308 307 306 305 304 303 302 302 301 302 302 303 304 306
340 340 337 334 332 329 326 322 319 316 314 311 310 308 308 307 306 307 308 309 308 308 309 309 309 308 307 307 305 304 304 303 303 303 303 303 304 305 305 305 305 305 306 306 307 307 308 309 310 312 313 313 313 312 310 308 307 305 304 303 302 303 303 303 304 304 305 306 307
339 338 335 331 328 324 320 316 314 311 310 307 306 306 306 306 305 306 307 308 308 308 308 307 307 307 307 306 305 304 304 303 303 303 303 303 304 305 305 304 304 304 305 305 306 307 308 310 311 313 315 314 314 313 311 309 306 305 304 304 304 304 305 306 306 306 306 307 307
338 335 331 327 323 319 314 311 309 307 305 304 304 304 304 305 305 307 309 309 310 310 309 307 306 306 306 306 305 304 303 303 303 304 304 304 305 305 305 304 304 304 304 305 306 307 309 310 312 315 317 317 317 315 312 309 306 305 305 305 306 306 307 307 307 307 307 308 306